KAL147 CYVR-KSFO

Flight info

Callsign KAL147
Flight time N/A
Altitude 35000
Route VIXOR DCT ELMAA Q1 ETCHY DCT MLBEC BDEGA4
Aircraft A3ST/H-SDFGHIRWY/LB1

Departure

Time 2026-05-05 04:13
Airport Vancouver International Airport (CYVR)

Arrival

Time N/A
Airport San Francisco International Airport (KSFO)
Time Latitude Longitude Altitude Speed Heading
2026-05-05 03:58 49.19693 -123.15805 18 ft 2 kts 226°
2026-05-05 03:58 49.19699 -123.15786 18 ft 1 kts 273°
2026-05-05 03:59 49.19698 -123.15777 18 ft 0 kts 283°
2026-05-05 03:59 49.19698 -123.15772 18 ft 0 kts 280°
2026-05-05 04:03 49.19698 -123.15774 18 ft 0 kts 280°
2026-05-05 04:03 49.19703 -123.15821 18 ft 9 kts 280°
2026-05-05 04:04 49.19753 -123.15923 18 ft 13 kts 323°
2026-05-05 04:04 49.19827 -123.16012 18 ft 13 kts 307°
2026-05-05 04:04 49.19854 -123.16139 18 ft 12 kts 279°
2026-05-05 04:04 49.19869 -123.16274 18 ft 13 kts 281°
2026-05-05 04:05 49.19887 -123.16429 17 ft 15 kts 280°
2026-05-05 04:05 49.19907 -123.16608 18 ft 17 kts 279°
2026-05-05 04:05 49.19930 -123.16805 18 ft 20 kts 281°
2026-05-05 04:05 49.19955 -123.17024 18 ft 22 kts 280°
2026-05-05 04:06 49.19982 -123.17264 17 ft 23 kts 280°
2026-05-05 04:06 49.20012 -123.17522 17 ft 25 kts 279°
2026-05-05 04:06 49.20041 -123.17785 17 ft 24 kts 280°
2026-05-05 04:06 49.20070 -123.18034 17 ft 23 kts 280°
2026-05-05 04:07 49.20097 -123.18272 17 ft 22 kts 280°
2026-05-05 04:07 49.20124 -123.18501 17 ft 22 kts 279°
2026-05-05 04:07 49.20151 -123.18745 17 ft 18 kts 280°
2026-05-05 04:07 49.20173 -123.18930 17 ft 11 kts 280°
2026-05-05 04:08 49.20145 -123.19021 17 ft 10 kts 202°
2026-05-05 04:08 49.20066 -123.19048 17 ft 13 kts 190°
2026-05-05 04:08 49.19964 -123.19075 17 ft 16 kts 190°
2026-05-05 04:08 49.19840 -123.19109 17 ft 19 kts 190°
2026-05-05 04:09 49.19693 -123.19147 17 ft 21 kts 189°
2026-05-05 04:09 49.19546 -123.19186 17 ft 21 kts 190°
2026-05-05 04:09 49.19413 -123.19222 17 ft 16 kts 189°
2026-05-05 04:09 49.19334 -123.19279 17 ft 11 kts 244°
2026-05-05 04:10 49.19316 -123.19389 17 ft 10 kts 259°
2026-05-05 04:10 49.19302 -123.19491 17 ft 9 kts 258°
2026-05-05 04:10 49.19286 -123.19611 17 ft 13 kts 259°
2026-05-05 04:10 49.19264 -123.19788 17 ft 20 kts 259°
2026-05-05 04:11 49.19235 -123.20027 17 ft 26 kts 259°
2026-05-05 04:11 49.19203 -123.20280 17 ft 18 kts 260°
2026-05-05 04:11 49.19139 -123.20422 17 ft 17 kts 194°
2026-05-05 04:11 49.19028 -123.20453 17 ft 14 kts 190°
2026-05-05 04:12 49.18970 -123.20410 17 ft 9 kts 109°
2026-05-05 04:12 49.18959 -123.20324 17 ft 8 kts 100°
2026-05-05 04:12 49.18938 -123.20148 17 ft 30 kts 100°
2026-05-05 04:12 49.18859 -123.19465 17 ft 110 kts 100°
2026-05-05 04:13 49.18673 -123.17825 19 ft 198 kts 100°
2026-05-05 04:13 49.18440 -123.15622 747 ft 214 kts 99°
2026-05-05 04:13 49.17871 -123.13723 1884 ft 205 kts 138°
2026-05-05 04:13 49.16650 -123.12694 2872 ft 206 kts 158°
2026-05-05 04:14 49.15263 -123.12422 3654 ft 212 kts 198°
2026-05-05 04:14 49.13926 -123.13408 4380 ft 221 kts 212°
2026-05-05 04:14 49.12576 -123.14616 5010 ft 235 kts 212°
2026-05-05 04:14 49.11086 -123.15905 5413 ft 256 kts 211°
2026-05-05 04:15 49.09484 -123.17281 5728 ft 271 kts 211°
2026-05-05 04:15 49.07792 -123.18729 6125 ft 292 kts 211°
2026-05-05 04:15 49.06001 -123.20258 6911 ft 298 kts 211°
2026-05-05 04:15 49.04206 -123.21795 7843 ft 297 kts 211°
2026-05-05 04:16 49.02410 -123.23336 8728 ft 297 kts 211°
2026-05-05 04:16 49.00611 -123.24875 9496 ft 300 kts 210°
2026-05-05 04:16 48.98792 -123.26424 10147 ft 306 kts 210°
2026-05-05 04:16 48.96907 -123.28020 10532 ft 316 kts 210°
2026-05-05 04:17 48.94953 -123.29673 10674 ft 333 kts 210°
2026-05-05 04:17 48.92880 -123.31428 10941 ft 349 kts 210°
2026-05-05 04:17 48.90702 -123.33273 11289 ft 368 kts 210°
2026-05-05 04:17 48.88431 -123.35196 11991 ft 383 kts 211°
2026-05-05 04:18 48.86130 -123.37138 13049 ft 381 kts 211°
2026-05-05 04:18 48.83837 -123.39070 14080 ft 380 kts 211°